Regional Weather Roundup
Issued by NWS

Home | Current Version | Previous Version | Text Only | Print | Product List | Glossary Off
Versions: 1 2 3 4 5 6 7 8 9 10 11 12 13 14 15 16 17 18 19 20 21 22 23 24 25 26 27 28 29 30 31 32 33 34 35 36 37 38 39 40 41 42 43 44 45 46 47 48 49 50

000
ASUS45 KBOU 282207
RWRCO

WEATHER ROUNDUP FOR COLORADO
NATIONAL WEATHER SERVICE DENVER/BOULDER CO
400 PM MDT MON JUL 28 2014

NOTE: "FAIR" INDICATES FEW OR NO CLOUDS BELOW 12000 FEET WITH NO
SIGNIFICANT WEATHER AND/OR OBSTRUCTIONS TO VISIBILITY.

COZ001>005-013-030-031-282300-
...NORTHWEST COLORADO...

CITY           SKY/WX    TMP DP  RH WIND       PRES   REMARKS
CRAIG          PTSUNNY   79  44  28 S9        30.26F
HAYDEN         PTSUNNY   86  39  19 SW13G20   30.29F
MEEKER         LGT RAIN  73  48  41 E9G24     30.34S
MOUNT WERNER   NOT AVBL
STEAMBOAT SPGS PTSUNNY   85  40  20 S6        30.31F
WALDEN         MOSUNNY   77  37  24 NE14G25   30.43F
$$

COZ006>008-011-282300-
...WEST CENTRAL VALLEYS...

CITY           SKY/WX    TMP DP  RH WIND       PRES   REMARKS
GRAND JUNCTION PTSUNNY   85  53  33 W7        30.21F
MONTROSE       PTSUNNY   86  48  26 SW12      30.30F
EAGLE          PTSUNNY   79  45  29 SW7       30.34F
RIFLE          CLOUDY    82  50  32 SW13      30.24S
DELTA          PTSUNNY   90  49  23 W6        30.25F
NUCLA          NOT AVBL
$$

COZ017>023-064>068-282300-
...SOUTHWEST COLORADO...

CITY           SKY/WX    TMP DP  RH WIND       PRES   REMARKS
DURANGO        CLOUDY    73  60  63 NE10      30.36F
CORTEZ         RAIN      74  63  68 S13       30.30F
PAGOSA SPRINGS PTSUNNY   73  50  43 S20       30.46R
TELLURIDE      PTSUNNY   66  50  55 CALM      30.55F
WOLF CREEK PAS NOT AVBL
$$

COZ009-010-012-014-032>034-037-058>063-282300-
...CENTRAL COLORADO...

CITY           SKY/WX    TMP DP  RH WIND       PRES   REMARKS
ASPEN          TSTM      59  54  83 SE14G22   30.49R
BUENA VISTA    CLOUDY    65  47  50 NE16G23   30.51R
COPPER MTN     LGT RAIN  54  39  58 W7        30.80R
BERTHOUD PASS  CLOUDY    43  30  61 E24G32    30.83S
COTTONWOOD PAS CLOUDY    63  48  59 CALM      30.65R THUNDER
GUNNISON       CLOUDY    73  48  40 CALM      30.44F
KREMMLING      CLOUDY    77  37  24 SW5       30.38S
LEADVILLE      RAIN      51  49  92 SE13      30.63S FOG
MONARCH PASS   CLOUDY    55  45  67 SW9       30.87S THUNDER
SALIDA         CLOUDY    62  57  83 E10G22    30.55R
SUNLIGHT       CLOUDY    61  54  77 CALM      30.69S
WILKERSON PASS NOT AVBL
$$

COZ069>075-282300-
...SAN LUIS VALLEY/SANGRE DE CRISTO MOUNTAINS...

CITY           SKY/WX    TMP DP  RH WIND       PRES   REMARKS
ALAMOSA        PTSUNNY   76  53  44 VRB5      30.42F
LA VETA PASS     N/A     61  52  72 E8        30.63F THUNDER
SAGUACHE       PTSUNNY   72  52  49 N6        30.48S
$$

COZ035-036-038>040-282300-
...NORTHERN COLORADO FRONT RANGE...

CITY           SKY/WX    TMP DP  RH WIND       PRES   REMARKS
DENVER INTL AP CLOUDY    81  55  40 SE16      30.28F THUNDER
DMNS CITY PARK   N/A     80  54  40 W3G13     30.27F
AURORA         PTSUNNY   77  59  53 S13       30.32S THUNDER
FRONT RANGE AP NOT AVBL
ERIE MUNI ARPT CLOUDY    82  55  39 NW7       30.26F
BOULDER MUN AP CLOUDY    81  54  39 NW3       30.27F
CENTENNIAL     TSTM      69  62  78 SW13      30.34R
BROOMFIELD     CLOUDY    81  55  41 NW14G22   30.32F
FORT COLLINS   CLOUDY    82  57  42 NW9       30.25F
LONGMONT       CLOUDY    85  55  35 NW6       30.28F
$$

COZ041-046-047-076>085-087-088-282300-
...PIKES PEAK/PALMER DIVIDE AND SOUTHERN FOOTHILLS...

CITY           SKY/WX    TMP DP  RH WIND       PRES   REMARKS
COLO. SPRINGS  CLOUDY    70  59  68 SE7       30.40S
A. F. ACADEMY  MOSUNNY   67  59  76 S7        30.41F
ELLICOTT       CLOUDY    71  57  61 S7        30.37F
FALCON         CLOUDY    67  58  72 S7        30.44S
FORT CARSON    CLOUDY    70  61  71 SE6       30.37S
LIMON          PTSUNNY   78  54  43 S15G23    30.33F
MONUMENT HILL  CLOUDY    64  55  72 S10       30.43S
TRINIDAD       MOSUNNY   75  58  55 W18G28    30.32S
$$

COZ042>045-048>051-090-091-282300-
...NORTHEAST COLORADO...

CITY           SKY/WX    TMP DP  RH WIND       PRES   REMARKS
GREELEY ARPT   CLOUDY    88  59  37 E6        30.24F
AKRON          MOSUNNY   84  53  34 S14G25    30.26F
BURLINGTON     SUNNY     82  52  35 S15G25    30.29F
WRAY             N/A     90  50  25 S10       30.23F
STERLING       MOSUNNY   90  61  37 SE6       30.21F
HOLYOKE        SUNNY     88  55  33 SE12G18   30.23F
FORT MORGAN    NOT AVBL
$$

COZ086-089-092>099-282300-
...SOUTHEAST COLORADO...

CITY           SKY/WX    TMP DP  RH WIND       PRES   REMARKS
PUEBLO         CLOUDY    79  61  53 NE9       30.27F
LA JUNTA       MOSUNNY   82  61  48 SE13G18   30.25F
LAMAR          MOSUNNY   82  59  45 S17       30.24F
SPRINGFIELD      N/A     72  60  66 S17       30.31F
$$



USA.gov is the U.S. government's official web portal to all federal, state and local government web resources and services.